[Date Prev][Date Next][Thread Prev][Thread Next] - [Date Index][Thread Index][Author Index]

2 LIne ISS Keps 11-7



ISS
1 25544U 98067A   03311.19247476  .00026490  00000-0  28235-3 0  7462
2 25544  51.6319  19.2282 0006450 111.6345 287.1422 15.63753435283356


----
Via the sarex mailing list at AMSAT.ORG courtesy of AMSAT-NA.
To unsubscribe, send "unsubscribe sarex" to Majordomo@amsat.org



AMSAT Top AMSAT Home